Regional Weather Roundup
Issued by NWS

Home | Current Version | Previous Version | Text Only | Print | Product List | Glossary Off
Versions: 1 2 3 4 5 6 7 8 9 10 11 12 13 14 15 16 17 18 19 20 21 22 23 24 25 26 27 28 29 30 31 32 33 34 35 36 37 38 39 40 41 42 43 44 45 46 47 48 49 50

468
ASUS43 KLMK 291002
RWRKY
KENTUCKY REGIONAL WEATHER ROUNDUP
NATIONAL WEATHER SERVICE LOUISVILLE KY
600 AM EDT THU SEP 29 2016

NOTE "FAIR" INDICATES FEW OR NO CLOUDS BELOW 12,000 FEET
WITH NO SIGNIFICANT WEATHER AND/OR OBSTRUCTIONS TO VISIBILITY.

KYZ001>023-026-027-061>063-070>075-291100-
WESTERN AND SOUTH CENTRAL KENTUCKY

CITY           SKY/WX    TMP DP  RH WIND       PRES   REMARKS
PADUCAH        CLEAR     50  46  86 W7        30.07S
HENDERSON      MOCLDY    50  45  81 W6        30.02S
OWENSBORO      NOT AVBL
HOPKINSVILLE   NOT AVBL
BOWLING GREEN  CLEAR     50  46  86 CALM      30.03S
GLASGOW        NOT AVBL
$$

KYZ024-025-028>034-038-045-046-053-291100-
NORTH CENTRAL KENTUCKY

CITY           SKY/WX    TMP DP  RH WIND       PRES   REMARKS
LOUISVILLE/SDF CLOUDY    55  50  83 SW3       30.00R
LOUISVILLE/LOU CLOUDY    54  50  86 CALM      30.00S
FORT KNOX      NOT AVBL
$$

KYZ035>037-039>044-047>052-055>060-089>105-291100-
NORTHEAST KENTUCKY

CITY           SKY/WX    TMP DP  RH WIND       PRES   REMARKS
LEXINGTON      CLOUDY    51  49  92 CALM      30.00S
COVINGTON      CLOUDY    52  52 100 S3        29.98F FOG
FRANKFORT      CLOUDY    52  49  89 CALM      29.99R
$$

KYZ054-064>069-076>088-106>120-291100-
SOUTHEAST KENTUCKY

CITY           SKY/WX    TMP DP  RH WIND       PRES   REMARKS
JACKSON        CLOUDY    55  54  96 W6        29.98R
LONDON         MOCLDY    53  50  89 CALM      30.00R
SOMERSET       CLOUDY    52  52 100 NW3       30.02S
MIDDLESBORO    CLOUDY    58  57  96 CALM      29.98S
MONTICELLO     CLOUDY    55  53  93 NW3       30.03S
$$





USA.gov is the U.S. government's official web portal to all federal, state and local government web resources and services.